Location: Unspecified
(47.1121°N, 116.3927°W)
Time: 20:15:37
(UTC-07:00)

CZ-3 Stage 3 - Visible Passes

Search period start: 23 March 2019 00:00
Search period end: 02 April 2019 00:00
Orbit: 472 x 34720 km, 30.5° (Epoch: 22 March)

Date Brightness Start Highest point End Pass type
(mag) Time Alt. Az. Time Alt. Az. Time Alt. Az.
24 Mar 6.1 03:11:43 19° SSE 03:22:28 32° ESE 11:41:23 10° SE visible
27 Mar 6.0 03:01:55 21° SSE 03:11:47 32° ESE 11:28:56 10° SE visible
30 Mar 6.0 02:52:04 22° SSE 03:01:07 32° ESE 11:16:20 10° SE visible
